sat.trackr.live / text

‹ back to catalog

ONEWEB-0185

NORAD 48220 · 2021-031L

PAYLOAD ACTIVE UNKNOWN

§ Identity

Operator
Country
UK
Launch date
2021-04-25
Launch site
VOSTO
Launch vehicle
Mass (kg)
RCS (m²)

Purposes: comms

External: N2YO · Heavens-Above · Gunter

§ Orbital elements

Epoch: 2026-09-19T23:37:37.157376Z

Period
109.55 min
Inclination
87.8901°
Eccentricity
0.0001598
Mean motion
13.14524005 rev/d
Perigee alt
1,204.5 km
Apogee alt
1,206.9 km
Semi-major
7,583.8 km
B*
6.4423e-3
RAAN
270.7952°
Arg perigee
103.8913°
Mean anomaly
256.2394°
Rev number
26,070

§ Raw data

ONEWEB-01851 48220U 21031L   26262.98445784  .00002403  00000+0  64423-2 0  99992 48220  87.8901 270.7952 0001598 103.8913 256.2394 13.14524005260702

JSON: /api/v1/satellites/48220 · /tle

For live sub-satellite position, see the globe view (requires WebGL).

§ Visibility from observer

Set your observer location to see the next 7 days of passes ≥ 10°. The values pass through the URL so the page stays shareable.

No JS? Fill the form by hand. The geolocation button needs JavaScript.